| time (UTC) | temp C | wind direction | speed KPH | gust KPH | rain 1hr cm | rain 24hr cm | rain mn cm | humidity % | barometer mb |
| 20260903101529 | 21 | 60 | 0.0 | 0.0 | 0.00 | 0.00 | 0.00 | 97 | 1018.5 |
| 20260903100036 | 21 | 60 | 0.0 | 0.0 | 0.00 | 0.00 | 0.00 | 96 | 1018.4 |
| 20260903094522 | 21 | 60 | 0.0 | 0.0 | 0.00 | 0.00 | 0.00 | 96 | 1018.3 |
| 20260903093012 | 21 | 60 | 0.0 | 0.0 | 0.00 | 0.00 | 0.00 | 97 | 1018.4 |
| 20260903091519 | 21 | 60 | 0.0 | 0.0 | 0.00 | 0.00 | 0.00 | 96 | 1018.4 |
| 20260903090004 | 21 | 60 | 0.0 | 0.0 | 0.00 | 0.00 | 0.00 | 96 | 1018.3 |
| 20260903084508 | 21 | 60 | 0.0 | 0.0 | 0.00 | 0.00 | 0.00 | 96 | 1018.2 |
| 20260903083009 | 21 | 60 | 0.0 | 0.0 | 0.00 | 0.00 | 0.00 | 96 | 1018.1 |
| 20260903081516 | 21 | 60 | 0.0 | 0.0 | 0.00 | 0.00 | 0.00 | 96 | 1018.2 |
| 20260903080028 | 21 | 60 | 0.0 | 0.0 | 0.00 | 0.00 | 0.00 | 96 | 1018.3 |
| 20260903074506 | 22 | 60 | 0.0 | 0.0 | 0.00 | 0.00 | 0.00 | 96 | 1018.2 |
| 20260903073008 | 22 | 60 | 0.0 | 0.0 | 0.00 | 0.00 | 0.00 | 96 | 1018.1 |
| 20260903071525 | 22 | 60 | 0.0 | 0.0 | 0.00 | 0.00 | 0.00 | 96 | 1018.2 |
| 20260903070022 | 22 | 60 | 0.0 | 0.0 | 0.00 | 0.00 | 0.00 | 96 | 1018.2 |
| 20260903064527 | 22 | 60 | 0.0 | 0.0 | 0.00 | 0.00 | 0.00 | 96 | 1018.2 |
| 20260903063010 | 22 | 60 | 0.0 | 0.0 | 0.00 | 0.00 | 0.00 | 96 | 1018.2 |
| 20260903061509 | 22 | 60 | 0.0 | 3.2 | 0.00 | 0.00 | 0.00 | 96 | 1018.0 |
| 20260903060019 | 22 | 60 | 0.0 | 0.0 | 0.00 | 0.00 | 0.00 | 95 | 1018.2 |
| 20260903054525 | 22 | 60 | 0.0 | 0.0 | 0.00 | 0.00 | 0.00 | 95 | 1018.1 |
| 20260903053027 | 22 | 60 | 0.0 | 0.0 | 0.00 | 0.00 | 0.00 | 95 | 1018.1 |
| 20260903051516 | 23 | 60 | 0.0 | 0.0 | 0.00 | 0.00 | 0.00 | 95 | 1018.1 |
| 20260903050012 | 23 | 60 | 0.0 | 0.0 | 0.00 | 0.00 | 0.00 | 95 | 1018.0 |
| 20260903044520 | 23 | 60 | 0.0 | 0.0 | 0.00 | 0.00 | 0.00 | 95 | 1017.9 |
| 20260903043059 | 23 | 60 | 0.0 | 0.0 | 0.00 | 0.00 | 0.00 | 95 | 1017.9 |
| 20260903041532 | 23 | 60 | 0.0 | 0.0 | 0.00 | 0.00 | 0.00 | 95 | 1017.9 |
| 20260903040016 | 23 | 60 | 0.0 | 0.0 | 0.00 | 0.00 | 0.00 | 95 | 1018.1 |
| 20260903034532 | 23 | 60 | 0.0 | 0.0 | 0.00 | 0.00 | 0.00 | 94 | 1018.0 |
| 20260903033023 | 23 | 60 | 0.0 | 0.0 | 0.00 | 0.00 | 0.00 | 94 | 1018.0 |
| 20260903031527 | 23 | 60 | 0.0 | 0.0 | 0.00 | 0.00 | 0.00 | 94 | 1018.2 |
| 20260903030031 | 24 | 60 | 0.0 | 3.2 | 0.00 | 0.00 | 0.00 | 93 | 1018.2 |
| 20260903024512 | 24 | 60 | 0.0 | 3.2 | 0.00 | 0.00 | 0.00 | 93 | 1018.3 |
| 20260903023019 | 24 | 60 | 0.0 | 1.6 | 0.00 | 0.00 | 0.00 | 92 | 1018.2 |
| 20260903021525 | 25 | 60 | 0.0 | 1.6 | 0.00 | 0.00 | 0.00 | 92 | 1018.1 |
| 20260903020031 | 25 | 60 | 0.0 | 1.6 | 0.00 | 0.00 | 0.00 | 91 | 1018.1 |
| 20260903014517 | 25 | 60 | 0.0 | 1.6 | 0.00 | 0.00 | 0.00 | 91 | 1018.1 |
| 20260903013016 | 25 | 60 | 0.0 | 1.6 | 0.00 | 0.00 | 0.00 | 90 | 1018.0 |
| 20260903011524 | 26 | 60 | 1.6 | 3.2 | 0.00 | 0.00 | 0.00 | 89 | 1017.9 |
| 20260903010033 | 26 | 60 | 0.0 | 3.2 | 0.00 | 0.00 | 0.00 | 87 | 1017.7 |
| 20260903004508 | 26 | 60 | 0.0 | 3.2 | 0.00 | 0.00 | 0.00 | 85 | 1017.5 |
| 20260903003013 | 27 | 36 | 1.6 | 3.2 | 0.00 | 0.00 | 0.00 | 82 | 1017.3 |
| 20260903001503 | 28 | 36 | 0.0 | 3.2 | 0.00 | 0.00 | 0.00 | 80 | 1017.3 |
| 20260903000004 | 29 | 36 | 0.0 | 3.2 | 0.00 | 0.00 | 0.00 | 77 | 1017.3 |
| 20260902234510 | 30 | 36 | 0.0 | 3.2 | 0.00 | 0.00 | 0.00 | 74 | 1017.1 |
| 20260902233012 | 31 | 36 | 1.6 | 3.2 | 0.00 | 0.00 | 0.00 | 70 | 1017.0 |
| 20260902231515 | 32 | 35 | 0.0 | 4.8 | 0.00 | 0.00 | 0.00 | 67 | 1017.1 |
| 20260902230002 | 33 | 55 | 0.0 | 4.8 | 0.00 | 0.00 | 0.00 | 63 | 1017.2 |
| 20260902224504 | 34 | 339 | 0.0 | 3.2 | 0.00 | 0.00 | 0.00 | 60 | 1017.1 |
| 20260902223021 | 34 | 339 | 0.0 | 4.8 | 0.00 | 0.00 | 0.00 | 59 | 1017.1 |
| 20260902221518 | 35 | 274 | 0.0 | 4.8 | 0.00 | 0.00 | 0.00 | 59 | 1017.1 |
| 20260902220022 | 35 | 63 | 0.0 | 6.4 | 0.00 | 0.00 | 0.00 | 59 | 1017.2 |
| 20260902214504 | 35 | 247 | 1.6 | 12.9 | 0.00 | 0.00 | 0.00 | 52 | 1017.2 |
| 20260902213008 | 35 | 230 | 3.2 | 11.3 | 0.00 | 0.00 | 0.00 | 49 | 1017.3 |
| 20260902211512 | 36 | 173 | 1.6 | 6.4 | 0.00 | 0.00 | 0.00 | 50 | 1017.3 |
| 20260902210019 | 36 | 192 | 3.2 | 12.9 | 0.00 | 0.00 | 0.00 | 50 | 1017.4 |
| 20260902204526 | 36 | 143 | 1.6 | 8.0 | 0.00 | 0.00 | 0.00 | 49 | 1017.5 |
| 20260902203007 | 36 | 279 | 3.2 | 12.9 | 0.00 | 0.00 | 0.00 | 48 | 1017.8 |
| 20260902201508 | 35 | 207 | 1.6 | 12.9 | 0.00 | 0.00 | 0.00 | 49 | 1017.9 |
| 20260902200021 | 35 | 255 | 4.8 | 14.5 | 0.00 | 0.00 | 0.00 | 47 | 1018.1 |
| 20260902194526 | 35 | 180 | 1.6 | 12.9 | 0.00 | 0.00 | 0.00 | 48 | 1018.2 |
| 20260902193029 | 35 | 257 | 8.0 | 12.9 | 0.00 | 0.00 | 0.00 | 46 | 1018.3 |
| 20260902191507 | 35 | 359 | 3.2 | 14.5 | 0.00 | 0.00 | 0.00 | 52 | 1018.3 |
| 20260902190017 | 35 | 338 | 3.2 | 8.0 | 0.00 | 0.00 | 0.00 | 53 | 1018.5 |
| 20260902184519 | 34 | 239 | 1.6 | 6.4 | 0.00 | 0.00 | 0.00 | 56 | 1018.7 |
| 20260902183024 | 33 | 134 | 1.6 | 6.4 | 0.00 | 0.00 | 0.00 | 63 | 1018.9 |
| 20260902181528 | 33 | 120 | 0.0 | 3.2 | 0.00 | 0.00 | 0.00 | 68 | 1019.1 |
| 20260902180010 | 33 | 131 | 0.0 | 4.8 | 0.00 | 0.00 | 0.00 | 65 | 1019.3 |
| 20260902174512 | 34 | 165 | 3.2 | 8.0 | 0.00 | 0.00 | 0.00 | 55 | 1019.4 |
| 20260902173020 | 35 | 215 | 3.2 | 12.9 | 0.00 | 0.00 | 0.00 | 57 | 1019.4 |
| 20260902171526 | 34 | 110 | 3.2 | 17.7 | 0.00 | 0.00 | 0.00 | 58 | 1019.7 |
| 20260902170030 | 34 | 233 | 1.6 | 12.9 | 0.00 | 0.00 | 0.00 | 57 | 1020.0 |
| 20260902164515 | 33 | 148 | 1.6 | 11.3 | 0.00 | 0.00 | 0.00 | 61 | 1020.2 |
| 20260902163015 | 33 | 257 | 1.6 | 11.3 | 0.00 | 0.00 | 0.00 | 62 | 1020.4 |
| 20260902161524 | 33 | 255 | 3.2 | 9.7 | 0.00 | 0.00 | 0.00 | 61 | 1020.6 |
| 20260902160032 | 32 | 248 | 3.2 | 9.7 | 0.00 | 0.00 | 0.00 | 65 | 1020.7 |
| 20260902154506 | 32 | 235 | 4.8 | 9.7 | 0.00 | 0.00 | 0.00 | 64 | 1020.8 |
| 20260902153006 | 32 | 149 | 4.8 | 9.7 | 0.00 | 0.00 | 0.00 | 64 | 1020.8 |
| 20260902151504 | 31 | 137 | 3.2 | 11.3 | 0.00 | 0.00 | 0.00 | 70 | 1020.8 |
| 20260902150007 | 31 | 167 | 1.6 | 8.0 | 0.00 | 0.00 | 0.00 | 70 | 1020.8 |
| 20260902144507 | 30 | 129 | 1.6 | 11.3 | 0.00 | 0.00 | 0.00 | 73 | 1020.7 |
| 20260902143006 | 30 | 172 | 3.2 | 8.0 | 0.00 | 0.00 | 0.00 | 75 | 1020.6 |
| 20260902141508 | 28 | 140 | 0.0 | 1.6 | 0.00 | 0.00 | 0.00 | 80 | 1020.8 |
| 20260902140007 | 27 | 144 | 0.0 | 0.0 | 0.00 | 0.00 | 0.00 | 82 | 1020.8 |
| 20260902134510 | 26 | 189 | 0.0 | 1.6 | 0.00 | 0.00 | 0.00 | 87 | 1020.6 |
| 20260902133008 | 25 | 220 | 0.0 | 1.6 | 0.00 | 0.00 | 0.00 | 92 | 1020.6 |
| 20260902131508 | 23 | 59 | 0.0 | 0.0 | 0.00 | 0.00 | 0.00 | 97 | 1020.4 |
| 20260902130010 | 22 | 59 | 0.0 | 0.0 | 0.00 | 0.00 | 0.00 | 98 | 1020.5 |
| 20260902124510 | 22 | 59 | 0.0 | 0.0 | 0.00 | 0.00 | 0.00 | 98 | 1020.3 |
| 20260902123010 | 21 | 59 | 0.0 | 0.0 | 0.00 | 0.00 | 0.00 | 98 | 1020.5 |
| 20260902121510 | 20 | 59 | 0.0 | 0.0 | 0.00 | 0.00 | 0.00 | 98 | 1020.3 |
| 20260902120010 | 20 | 59 | 0.0 | 0.0 | 0.00 | 0.00 | 0.00 | 97 | 1020.3 |
| 20260902114516 | 20 | 59 | 0.0 | 0.0 | 0.00 | 0.00 | 0.00 | 97 | 1020.2 |
| 20260902113010 | 20 | 59 | 0.0 | 0.0 | 0.00 | 0.00 | 0.00 | 97 | 1020.2 |
| 20260902111512 | 20 | 59 | 0.0 | 0.0 | 0.00 | 0.00 | 0.00 | 97 | 1020.0 |
| 20260902110017 | 20 | 59 | 0.0 | 0.0 | 0.00 | 0.00 | 0.00 | 97 | 1020.0 |
| 20260902104512 | 20 | 59 | 0.0 | 0.0 | 0.00 | 0.00 | 0.00 | 97 | 1019.9 |
| 20260902103015 | 20 | 59 | 0.0 | 0.0 | 0.00 | 0.00 | 0.00 | 97 | 1019.9 |